TimeCST,TemperatureF,Dew PointF,Humidity,Sea Level PressureIn,VisibilityMPH,Wind Direction,Wind SpeedMPH,Gust SpeedMPH,PrecipitationIn,Events,Conditions,WindDirDegrees,DateUTC
12:53 AM,35.1,35.1,100,29.93,0.2,Calm,Calm,-,N/A,Fog,Fog,0,2013-02-22 06:53:00
1:09 AM,35.6,35.6,100,29.94,0.2,SW,4.6,-,N/A,Fog,Fog,230,2013-02-22 07:09:00
1:53 AM,36.0,36.0,100,29.95,0.2,Calm,Calm,-,N/A,Fog,Fog,0,2013-02-22 07:53:00
2:21 AM,35.6,35.6,100,29.95,0.5,SSW,5.8,-,N/A,Fog,Fog,200,2013-02-22 08:21:00
2:53 AM,35.1,35.1,100,29.96,0.5,West,4.6,-,N/A,Fog,Fog,260,2013-02-22 08:53:00
3:53 AM,34.0,34.0,100,29.98,1.0,WNW,5.8,-,N/A,,Mist,300,2013-02-22 09:53:00
4:53 AM,34.0,34.0,100,29.99,1.0,NNW,4.6,-,N/A,,Mist,340,2013-02-22 10:53:00
5:53 AM,34.0,34.0,100,30.02,2.5,NW,3.5,-,N/A,,Overcast,310,2013-02-22 11:53:00
6:00 AM,33.8,33.8,100,30.02,4.0,NW,4.6,-,N/A,,Overcast,310,2013-02-22 12:00:00
6:44 AM,35.6,35.6,100,30.05,2.5,SW,5.8,-,N/A,,Overcast,220,2013-02-22 12:44:00
6:53 AM,35.1,35.1,100,30.06,9.0,SW,3.5,-,N/A,,Overcast,230,2013-02-22 12:53:00
7:53 AM,35.1,35.1,100,30.09,10.0,Calm,Calm,-,N/A,,Overcast,0,2013-02-22 13:53:00
8:53 AM,37.0,37.0,100,30.11,10.0,NW,4.6,-,N/A,,Mostly Cloudy,310,2013-02-22 14:53:00
9:11 AM,37.4,35.6,93,30.10,10.0,WNW,5.8,-,N/A,,Mostly Cloudy,290,2013-02-22 15:11:00
9:18 AM,39.2,35.6,87,30.10,10.0,West,4.6,-,N/A,,Scattered Clouds,280,2013-02-22 15:18:00
9:53 AM,39.9,36.0,86,30.11,10.0,NW,5.8,-,N/A,,Partly Cloudy,310,2013-02-22 15:53:00
10:53 AM,44.1,37.9,79,30.09,10.0,WNW,4.6,-,N/A,,Clear,300,2013-02-22 16:53:00
11:53 AM,45.0,36.0,71,30.09,10.0,WNW,3.5,-,N/A,,Clear,300,2013-02-22 17:53:00
12:53 PM,46.9,37.0,68,30.06,10.0,Calm,Calm,-,N/A,,Clear,0,2013-02-22 18:53:00
1:53 PM,48.0,37.0,66,30.03,10.0,Calm,Calm,-,N/A,,Clear,0,2013-02-22 19:53:00
2:53 PM,50.0,37.9,63,29.99,10.0,North,5.8,-,N/A,,Clear,360,2013-02-22 20:53:00
3:53 PM,50.0,37.9,63,30.02,10.0,North,5.8,-,N/A,,Clear,10,2013-02-22 21:53:00
4:53 PM,48.0,39.0,71,30.02,10.0,NE,8.1,-,N/A,,Clear,40,2013-02-22 22:53:00
5:53 PM,45.0,36.0,71,30.05,10.0,NE,6.9,-,N/A,,Clear,50,2013-02-22 23:53:00
6:53 PM,44.1,36.0,73,30.06,10.0,North,4.6,-,N/A,,Mostly Cloudy,360,2013-02-23 00:53:00
7:53 PM,43.0,35.1,74,30.07,10.0,North,5.8,-,N/A,,Clear,350,2013-02-23 01:53:00
8:53 PM,41.0,33.1,73,30.08,10.0,North,6.9,-,N/A,,Clear,360,2013-02-23 02:53:00
9:53 PM,39.9,32.0,73,30.09,10.0,NNW,11.5,-,N/A,,Clear,340,2013-02-23 03:53:00
10:53 PM,37.9,30.9,76,30.09,10.0,North,8.1,-,N/A,,Clear,360,2013-02-23 04:53:00
11:53 PM,37.0,32.0,82,30.09,10.0,NNW,6.9,-,N/A,,Clear,340,2013-02-23 05:53:00